This is the latest recevied weather packets stored in our database for station/object EA7URS-13. If no packets are shown the sender has not sent any weather packets the latest 10 day(s).
| Time | Temp. | Humidity | Pressure | Rain* | Wind** | Luminosity | Snow |
|---|---|---|---|---|---|---|---|
| 1788379000 | 31.67° C | 49% | 1010.2 hPa | 0 mm | - | 0 W/m² | - |
| 1788378698 | 31.67° C | 49% | 1010.3 hPa | 0 mm | - | 0 W/m² | - |
| 1788378398 | 31.67° C | 49% | 1010.3 hPa | 0 mm | - | 0 W/m² | - |
| 1788378097 | 31.67° C | 49% | 1010.1 hPa | 0 mm | - | 0 W/m² | - |
| 1788377795 | 31.67° C | 49% | 1010.1 hPa | 0 mm | - | 0 W/m² | - |
| 1788377494 | 32.22° C | 48% | 1010 hPa | 0 mm | - | 0 W/m² | - |
| 1788377193 | 32.22° C | 48% | 1010 hPa | 0 mm | - | 0 W/m² | - |
| 1788376892 | 32.78° C | 48% | 1009.9 hPa | 0 mm | - | 0 W/m² | - |
| 1788376591 | 32.78° C | 48% | 1009.9 hPa | 0 mm | - | 0 W/m² | - |
| 1788376290 | 32.78° C | 47% | 1009.6 hPa | 0 mm | - | 0 W/m² | - |
| 1788375989 | 32.78° C | 47% | 1009.6 hPa | 0 mm | - | 0 W/m² | - |
| 1788375688 | 33.33° C | 46% | 1009.8 hPa | 0 mm | - | 2 W/m² | - |
| 1788375387 | 33.33° C | 46% | 1009.8 hPa | 0 mm | - | 2 W/m² | - |
| 1788375086 | 33.89° C | 44% | 1009.8 hPa | 0 mm | - | 5 W/m² | - |
| 1788374784 | 33.89° C | 44% | 1009.8 hPa | 0 mm | - | 5 W/m² | - |
| 1788374484 | 34.44° C | 43% | 1009.5 hPa | 0 mm | - | 11 W/m² | - |
| 1788374182 | 34.44° C | 43% | 1009.5 hPa | 0 mm | - | 11 W/m² | - |
| 1788373881 | 36.11° C | 33% | 1009.6 hPa | 0 mm | - | 17 W/m² | - |
| 1788373580 | 36.11° C | 33% | 1009.6 hPa | 0 mm | - | 17 W/m² | - |
| 1788373279 | 36.67° C | 31% | 1009.5 hPa | 0 mm | - | 24 W/m² | - |
| 1788372978 | 36.67° C | 31% | 1009.5 hPa | 0 mm | - | 24 W/m² | - |
| 1788372677 | 36.67° C | 34% | 1009.7 hPa | 0 mm | - | 30 W/m² | - |
| 1788372375 | 36.67° C | 34% | 1009.7 hPa | 0 mm | - | 30 W/m² | - |
| 1788372074 | 36.67° C | 36% | 1009.5 hPa | 0 mm | - | 35 W/m² | - |
| 1788371773 | 36.67° C | 36% | 1009.5 hPa | 0 mm | - | 35 W/m² | - |
* Rain latest hour (hover to see other rain measurements)
** Current wind speed in m/s (hover to see current wind gust speed)